Simultaneous Nadir Overpasses (SNOs) Predictions

Prediction of SNOs between GOES-16 and AQUA Satellite Orbit:

Table of predicted SNOs for the next 14.0 days since TLE Epoch: 5/11/2018
Index Date Time (GOES-16) GOES-16 Lat,Lon AQUA Lat,Lon Distance(km) Time Diff (sec)
1 05/12/2018 18:29:49 -0.00, -75.20 0.43, -73.15 232.73 80
2 05/13/2018 06:51:04 0.00, -75.20 0.68, -78.31 353.78 80
3 05/15/2018 06:38:52 0.00, -75.20 0.04, -75.35 16.69 80
4 05/17/2018 06:24:00 0.00, -75.21 -0.60, -72.39 320.45 80
5 05/17/2018 18:45:24 0.00, -75.22 -0.51, -77.58 269.51 80
6 05/19/2018 18:35:52 0.01, -75.23 0.13, -74.63 67.88 80
7 05/21/2018 18:23:40 0.01, -75.24 0.78, -71.67 405.95 80
8 05/22/2018 06:44:55 -0.01, -75.25 0.32, -76.83 179.74 80
9 05/24/2018 06:30:03 -0.01, -75.27 -0.34, -73.88 159.48 80
10 05/24/2018 18:51:27 0.01, -75.28 -0.78, -79.07 430.19 80




NCC Satellite Simultaneous Nadir Overpasses (SNOs) Prediction Service
